TIMED

Last updated on Tue Jan 14 2025 00:02:33 GMT+0000 (Coordinated Universal Time)

1 26998U 01055B 25013.56167414 .00002036 00000+0 19912-3 0 9995 2 26998 74.0682 199.6959 0001667 215.2487 144.8586 14.93084096253202
UTC large
Height (km)
Speed (km/s)
/
Latitude / Longitude
Inclination (degrees)
Orbital Period (minutes)
Azimuth
Elevation
Range (km)
Doppler Factor

Next 0 passes for location: London (51.5072 / 0.1276)

Sorry there are no passes over London.